Weather History for Hill City, KS

Change the Weather History Date:

Wednesday, August 20, 2014

  Actual Average Record
Temperature  
Mean Temperature 86 °F 76 °F  
Max Temperature 100 °F 90 °F 109 °F (1911)
Min Temperature 72 °F 63 °F 49 °F (2012)
Cooling Degree Days 21    
Growing Degree Days 36 (Base 50)    
Moisture  
Dew Point 63 °F    
Average Humidity 49    
Maximum Humidity 71    
Minimum Humidity 28    
Precipitation  
Precipitation 0.00 in 0.09 in 0.25 in (1999)
Month to date precipitation 1.58 1.88  
Year to date precipitation 15.25 16.85  
Sea Level Pressure  
Sea Level Pressure 29.68 in    
Wind  
Wind Speed 10 mph (South)    
Max Wind Speed 20 mph    
Max Gust Speed 26 mph    
Visibility 10 miles    
Events      
T = Trace of Precipitation, MM = Missing Value Source: NWS Daily Summary

Daily Weather History Graph

Daily Weather History Graph

Search for Another Location

Airport:

Trip Planner

Search our weather history database for the weather conditions in past years. The results will help you decide how hot, cold, wet, or windy it might be!

Date:

Astronomy

Aug. 20, 2014 Rise Set
Actual Time 6:56 AM CDT 8:27 PM CDT
Civil Twilight 6:28 AM CDT 8:56 PM CDT
Nautical Twilight 5:54 AM CDT 9:30 PM CDT
Astronomical Twilight 5:18 AM CDT 10:06 PM CDT
Moon 2:38 AM CDT (8/20) 5:13 PM CDT (8/20)
Length of Visible Light 14h 27m
Length of Day
13h 31m
Waning Crescent, 20% of the Moon is Illuminated
Aug 20
Waning Crescent
Aug 25
New
Sep 2
First Quarter
Sep 8
Full
Sep 15
Last Quarter

Hourly Weather History & Observations

Time (CDT) Temp. Heat Index Dew Point Humidity Pressure Visibility Wind Dir Wind Speed Gust Speed Precip Events Conditions
12:53 AM 78.1 °F - 62.1 °F 58% 29.71 in 10.0 mi SSW 9.2 mph - N/A   Clear
1:53 AM 79.0 °F - 62.1 °F 56% 29.71 in 10.0 mi WSW 10.4 mph - N/A   Clear
2:53 AM 77.0 °F - 62.1 °F 60% 29.72 in 10.0 mi SSW 6.9 mph - N/A   Clear
3:53 AM 73.9 °F - 62.1 °F 66% 29.71 in 10.0 mi South 5.8 mph - N/A   Clear
4:53 AM 73.9 °F - 63.0 °F 68% 29.71 in 10.0 mi South 3.5 mph - N/A   Clear
5:53 AM 73.0 °F - 63.0 °F 71% 29.71 in 10.0 mi Calm Calm - N/A   Clear
6:53 AM 73.0 °F - 63.0 °F 71% 29.71 in 10.0 mi SSW 5.8 mph - N/A   Clear
7:53 AM 73.0 °F - 63.0 °F 71% 29.71 in 10.0 mi Variable 5.8 mph - N/A   Clear
8:53 AM 78.1 °F - 64.0 °F 62% 29.72 in 10.0 mi SSW 9.2 mph - N/A   Clear
9:53 AM 82.0 °F 83.8 °F 64.9 °F 56% 29.71 in 10.0 mi South 11.5 mph - N/A   Clear
10:53 AM 86.0 °F 88.2 °F 66.0 °F 51% 29.70 in 10.0 mi South 13.8 mph - N/A   Clear
11:53 AM 90.0 °F 92.4 °F 66.0 °F 45% 29.70 in 10.0 mi South 11.5 mph - N/A   Clear
12:53 PM 93.0 °F 95.0 °F 64.9 °F 39% 29.68 in 10.0 mi South 13.8 mph - N/A   Clear
1:53 PM 95.0 °F 97.4 °F 64.9 °F 37% 29.66 in 10.0 mi South 16.1 mph 26.5 mph N/A   Clear
2:53 PM 97.0 °F 99.9 °F 64.9 °F 35% 29.65 in 10.0 mi South 15.0 mph 26.5 mph N/A   Clear
3:53 PM 98.1 °F 100.7 °F 64.0 °F 33% 29.64 in 10.0 mi South 18.4 mph 25.3 mph N/A   Clear
4:53 PM 99.0 °F 99.5 °F 61.0 °F 28% 29.63 in 10.0 mi SSW 19.6 mph 24.2 mph N/A   Clear
5:53 PM 97.0 °F 96.5 °F 59.0 °F 28% 29.63 in 10.0 mi South 11.5 mph - N/A   Clear
6:53 PM 95.0 °F 95.6 °F 62.1 °F 33% 29.63 in 10.0 mi South 12.7 mph 23.0 mph N/A   Clear
7:53 PM 93.0 °F 94.2 °F 63.0 °F 37% 29.63 in 10.0 mi South 13.8 mph - N/A   Clear
8:53 PM 90.0 °F 90.6 °F 63.0 °F 40% 29.64 in 10.0 mi SSE 10.4 mph - N/A   Partly Cloudy
9:53 PM 88.0 °F 88.4 °F 62.1 °F 42% 29.66 in 10.0 mi South 12.7 mph - N/A   Clear
10:53 PM 87.1 °F 87.5 °F 62.1 °F 43% 29.67 in 10.0 mi South 15.0 mph 20.7 mph N/A   Clear
11:53 PM 87.1 °F 87.0 °F 61.0 °F 41% 29.68 in 10.0 mi South 12.7 mph 21.9 mph N/A   Partly Cloudy